Waarnemingen

Advertentie
Mijn weer
Antwerpen, België (6450): temperatuur & dauwpunt: 06.12.2017 07:00:00 - 12.12.2017 07:00:00 (CET)Antwerpen, België (6450): windsnelheid & windstoten: 06.12.2017 07:00:00 - 12.12.2017 07:00:00 (CET)Antwerpen, België (6450): windrichting: 06.12.2017 07:00:00 - 12.12.2017 07:00:00 (CET)Antwerpen, België (6450): luchtdruk: 06.12.2017 07:00:00 - 12.12.2017 07:00:00 (CET)Antwerpen, België (6450): zicht: 06.12.2017 07:00:00 - 12.12.2017 07:00:00 (CET)
Datum & Tijd tt [°C] td [°C] ff [km/u] ff [kn] fx [km/u] fx [kn] dd ppp [hPa] vv [km]
12.12.2017 07:00:00 1,4 -0,3 13 7 - - WZW 1002,2 10
12.12.2017 06:00:00 1,5 0,0 16 9 29 16 WZW 1000,8 10
12.12.2017 05:00:00 1,2 0,0 22 12 29 16 W 999,4 4,0
12.12.2017 04:00:00 1,3 -0,1 15 8 - - W 997,2 10
12.12.2017 03:00:00 1,7 0,2 14 8 29 16 W 995,4 30
12.12.2017 02:00:00 2,6 -0,3 18 10 29 16 NW 993,7 10
12.12.2017 01:00:00 1,9 -0,6 18 10 - - NW 991,7 45
12.12.2017 00:00:00 1,7 -0,6 22 12 32 18 NW 989,6 10
11.12.2017 23:00:00 0,0 -1,0 18 10 32 18 NNW - 10
11.12.2017 22:00:00 0,4 -1,2 21 11 - - N 984,1 7
11.12.2017 21:00:00 0,0 -1,4 14 8 40 21 N 982,9 3,0
11.12.2017 20:00:00 -0,1 -1,4 22 12 43 23 N 981,0 1,3
11.12.2017 19:00:00 -0,1 -1,5 22 12 - - N 978,8 1,1
11.12.2017 18:00:00 0,6 -0,7 18 10 32 18 NNO 977,4 2,0
11.12.2017 17:00:00 0,7 -0,6 18 10 29 16 NO 976,0 2,1
11.12.2017 16:00:00 1,0 -0,3 18 10 - - ONO 975,7 4,0
11.12.2017 15:00:00 0,8 -0,4 18 10 32 18 ONO 975,3 4,5
11.12.2017 14:00:00 0,9 -0,5 22 12 43 23 ONO 975,6 5
11.12.2017 13:00:00 0,4 -1,0 28 15 - - ONO 975,4 8
11.12.2017 12:00:00 -0,1 -1,3 24 13 47 25 ONO 977,8 1,5
11.12.2017 11:00:00 0,0 -0,8 22 12 40 21 ONO 979,8 0,9
11.12.2017 10:00:00 -0,1 -1,2 21 11 - - ONO 980,3 1,0
11.12.2017 09:00:00 -0,1 -1,3 24 13 40 21 O 980,8 1,1
11.12.2017 08:00:00 1,1 -1,5 22 12 36 19 O 980,6 9
11.12.2017 07:00:00 1,5 -1,2 21 11 - - O 981,0 10
11.12.2017 06:00:00 1,2 0,0 16 9 29 16 ONO 981,9 6
11.12.2017 05:00:00 0,2 -1,1 9 5 11 6 O 983,2 6
11.12.2017 04:00:00 -1,0 -1,9 5 3 - - OZO 984,1 4,9
11.12.2017 03:00:00 0,8 -0,5 4 2 11 6 - 983,8 8
11.12.2017 02:00:00 2,4 0,5 5 3 14 8 ZW 983,7 10
11.12.2017 01:00:00 2,7 0,9 11 6 - - ZW 983,6 10
11.12.2017 00:00:00 3,3 1,5 13 7 32 18 WZW 982,2 10
10.12.2017 23:00:00 3,5 1,6 18 10 40 21 WZW 981,9 10
10.12.2017 22:00:00 3,6 1,7 24 13 - - WZW 980,2 10
10.12.2017 21:00:00 3,6 1,8 29 16 65 35 W 978,5 10
10.12.2017 20:00:00 4,6 1,1 39 21 79 43 W 976,2 10
10.12.2017 19:00:00 5,9 1,4 39 21 - - W 974,2 10
10.12.2017 18:00:00 8,0 3,2 44 24 86 47 WZW 972,6 10
10.12.2017 17:00:00 7,4 4,3 41 22 68 37 ZW 971,8 5
10.12.2017 16:00:00 6,3 3,7 24 13 - - ZW 972,6 9
10.12.2017 15:00:00 5,3 3,3 24 13 50 27 ZW 973,4 7
10.12.2017 14:00:00 3,5 1,9 18 10 32 18 Z 973,8 10
10.12.2017 13:00:00 0,5 -1,1 16 9 - - ZO 975,9 4,5
10.12.2017 12:00:00 0,2 -0,8 22 12 40 21 ZO 978,5 1,3
10.12.2017 11:00:00 0,0 -1,1 26 14 36 19 ZO 981,5 1,1
10.12.2017 10:00:00 0,4 -0,8 21 11 - - ZO 986,0 2,7
10.12.2017 09:00:00 1,6 -0,2 22 12 32 18 ZZO 989,6 8
10.12.2017 08:00:00 2,4 -0,1 21 11 29 16 ZZO 992,5 10
10.12.2017 07:00:00 2,5 0,1 16 9 - - ZZO 995,3 10
10.12.2017 06:00:00 2,4 0,3 13 7 22 12 Z 997,7 10
10.12.2017 05:00:00 1,9 0,3 11 6 29 16 ZZW 1000,2 7
10.12.2017 04:00:00 2,1 0,2 18 10 - - ZZW 1001,9 10
10.12.2017 03:00:00 1,9 -0,2 18 10 25 14 ZZW 1003,6 10
10.12.2017 02:00:00 1,5 -0,3 13 7 29 16 ZZW 1005,3 10
10.12.2017 01:00:00 1,3 -0,5 22 12 - - ZZW 1006,6 10
10.12.2017 00:00:00 1,9 -0,6 18 10 32 18 ZZW 1007,9 10
09.12.2017 23:00:00 1,3 -1,0 18 10 32 18 ZW 1008,6 10
09.12.2017 22:00:00 1,4 -1,1 18 10 - - ZW 1009,7 10
09.12.2017 21:00:00 1,9 -1,2 18 10 32 18 ZW 1010,5 10
09.12.2017 20:00:00 2,1 -1,3 22 12 32 18 ZW 1011,2 10
09.12.2017 19:00:00 2,3 -1,8 16 9 - - ZW 1011,9 10
09.12.2017 18:00:00 2,3 -1,7 16 9 29 16 ZW 1012,4 10
09.12.2017 17:00:00 2,6 -1,3 16 9 36 19 WZW 1013,1 10
09.12.2017 16:00:00 3,3 -0,7 18 10 - - WZW 1013,4 10
09.12.2017 15:00:00 3,8 -0,3 21 11 29 16 WZW 1013,8 10
09.12.2017 14:00:00 3,6 -0,5 16 9 36 19 WZW 1014,4 10
09.12.2017 13:00:00 3,5 -0,7 21 11 - - WZW 1014,6 10
09.12.2017 12:00:00 2,8 -0,9 18 10 29 16 WZW 1014,9 10
09.12.2017 11:00:00 2,0 -1,4 21 11 32 18 WZW 1015,1 10
09.12.2017 10:00:00 1,3 -1,8 18 10 - - WZW 1015,0 10
09.12.2017 09:00:00 1,1 -2,1 18 10 29 16 WZW 1014,6 10
09.12.2017 08:00:00 0,7 -2,7 16 9 29 16 WZW 1014,4 10
09.12.2017 07:00:00 0,9 -2,6 16 9 - - WZW 1014,3 10
09.12.2017 06:00:00 1,0 -2,7 15 8 29 16 WZW 1014,4 10
09.12.2017 05:00:00 0,8 -2,8 21 11 29 16 WZW 1014,2 10
09.12.2017 04:00:00 0,8 -2,9 13 7 - - WZW 1014,5 10
09.12.2017 03:00:00 0,8 -2,9 15 8 25 14 WZW 1014,5 10
09.12.2017 02:00:00 1,7 -3,0 16 9 25 14 WZW 1014,3 10
09.12.2017 01:00:00 1,7 -3,0 15 8 - - WZW 1014,4 10
09.12.2017 00:00:00 2,2 -2,9 16 9 29 16 W 1014,2 10
08.12.2017 23:00:00 2,5 -2,9 16 9 25 14 W 1014,2 10
08.12.2017 22:00:00 2,8 -2,4 16 9 - - W 1013,8 10
08.12.2017 21:00:00 3,2 -2,7 21 11 32 18 W 1013,4 10
08.12.2017 20:00:00 3,0 -2,9 16 9 25 14 W 1013,2 10
08.12.2017 19:00:00 3,2 -2,5 16 9 - - W 1012,9 10
08.12.2017 18:00:00 3,2 -2,4 21 11 36 19 W 1012,8 10
08.12.2017 17:00:00 3,6 -2,2 18 10 40 21 W 1012,4 10
08.12.2017 16:00:00 4,4 -2,5 22 12 - - WNW 1012,0 10
08.12.2017 15:00:00 4,7 -1,0 21 11 43 23 WNW 1011,5 10
08.12.2017 14:00:00 5,1 -1,5 26 14 47 25 WNW 1011,1 10
08.12.2017 13:00:00 5,0 -1,0 31 17 - - WNW 1010,8 10
08.12.2017 12:00:00 3,6 1,3 16 9 40 21 W 1010,7 10
08.12.2017 11:00:00 3,3 0,9 22 12 36 19 WZW 1010,5 10
08.12.2017 10:00:00 3,1 0,5 26 14 - - WZW 1009,9 10
08.12.2017 09:00:00 2,9 -0,1 22 12 36 19 WZW 1009,3 10
08.12.2017 08:00:00 2,8 0,0 22 12 47 25 WZW 1009,2 10
08.12.2017 07:00:00 3,2 0,7 15 8 - - WZW 1009,9 10
08.12.2017 06:00:00 3,7 0,0 22 12 36 19 W 1010,2 10
08.12.2017 05:00:00 3,8 1,1 15 8 25 14 WZW 1010,2 10
08.12.2017 04:00:00 4,7 0,8 16 9 - - W 1010,5 10
08.12.2017 03:00:00 5,3 2,2 18 10 32 18 W 1010,1 10
08.12.2017 02:00:00 5,1 2,1 16 9 29 16 WZW 1009,5 10
08.12.2017 01:00:00 5,9 2,0 18 10 - - W 1009,4 10
08.12.2017 00:00:00 6,4 3,4 21 11 29 16 W 1009,3 10
07.12.2017 23:00:00 6,4 4,3 15 8 25 14 WZW 1008,9 10
07.12.2017 22:00:00 6,5 4,6 15 8 - - W 1008,7 10
07.12.2017 21:00:00 6,6 5,3 13 7 32 18 W 1008,4 10
07.12.2017 20:00:00 6,8 5,5 21 11 47 25 WNW 1008,1 8
07.12.2017 19:00:00 7,2 5,9 26 14 - - ZW 1007,2 2,4
07.12.2017 18:00:00 7,0 5,5 29 16 54 29 ZW 1007,1 7
07.12.2017 17:00:00 6,6 5,1 31 17 54 29 ZZW 1007,7 9
07.12.2017 16:00:00 6,7 4,7 31 17 - - ZZW 1008,4 10
07.12.2017 15:00:00 6,3 4,5 31 17 50 27 ZZW 1009,6 10
07.12.2017 14:00:00 5,8 3,8 31 17 58 31 ZZW 1010,8 6
07.12.2017 13:00:00 6,0 3,0 34 18 - - ZZW 1012,3 10
07.12.2017 12:00:00 5,4 2,6 35 19 54 29 ZZW 1013,7 8
07.12.2017 11:00:00 4,7 1,9 31 17 50 27 ZZW 1015,4 9
07.12.2017 10:00:00 4,9 1,1 29 16 - - ZZW 1016,2 10
07.12.2017 09:00:00 4,8 0,7 28 15 47 25 ZZW 1016,7 10
07.12.2017 08:00:00 4,1 0,4 22 12 40 21 Z 1017,4 10
07.12.2017 07:00:00 3,7 0,6 22 12 - - Z 1018,8 10
07.12.2017 06:00:00 4,3 0,9 26 14 47 25 ZZW 1019,9 10
07.12.2017 05:00:00 4,5 0,8 22 12 47 25 ZZW 1020,5 10
07.12.2017 04:00:00 5,2 0,9 28 15 - - ZZW 1021,5 10
07.12.2017 03:00:00 5,7 0,3 22 12 43 23 ZZW 1022,4 10
07.12.2017 02:00:00 6,4 0,7 26 14 40 21 ZW 1023,3 10
07.12.2017 01:00:00 6,7 1,3 24 13 - - ZZW 1024,0 10
07.12.2017 00:00:00 6,9 2,1 18 10 32 18 ZZW 1024,9 10
06.12.2017 23:00:00 7,1 2,2 18 10 40 21 ZZW 1025,6 10
06.12.2017 22:00:00 7,3 2,2 16 9 - - ZZW 1026,3 10
06.12.2017 21:00:00 7,4 3,1 16 9 32 18 ZZW 1026,9 10
06.12.2017 20:00:00 7,6 3,9 18 10 29 16 ZZW 1027,7 10
06.12.2017 19:00:00 7,7 4,5 15 8 - - ZZW 1028,2 10
06.12.2017 18:00:00 7,7 4,8 18 10 25 14 ZZW 1028,7 10
06.12.2017 17:00:00 7,9 5,1 13 7 25 14 ZZW 1029,0 10
06.12.2017 16:00:00 8,0 5,2 15 8 - - ZZW 1029,4 10
06.12.2017 15:00:00 8,0 5,1 16 9 25 14 ZW 1029,9 10
06.12.2017 14:00:00 8,2 5,1 11 6 22 12 ZZW 1030,4 10
06.12.2017 13:00:00 8,1 5,0 13 7 - - ZW 1031,1 9
06.12.2017 12:00:00 7,9 5,2 15 8 25 14 ZW 1031,5 9
06.12.2017 11:00:00 7,5 5,0 15 8 29 16 ZW 1031,9 9
06.12.2017 10:00:00 7,2 4,7 13 7 - - ZW 1031,9 10
06.12.2017 09:00:00 7,2 4,5 13 7 22 12 ZW 1032,1 10
06.12.2017 08:00:00 7,0 4,3 13 7 22 12 ZW 1032,0 10
06.12.2017 07:00:00 6,7 3,9 13 7 - - ZW 1032,2 10

tt = temperatuur
td = dauwpunt
ff = windsnelheid
fx = windstoten
dd = windrichting
ppp = luchtdruk
vv = zicht

Weerstations in de omgeving